AirNav   Air Wisconsin pilot careers
 
 360 users online  

9II4 Cruzan Field Airport
Arcadia, Indiana, USA

GOING TO ARCADIA?


FAA INFORMATION EFFECTIVE 26 APRIL 2018

Location

FAA Identifier: 9II4
Lat/Long: 40-10-21.0000N / 085-56-41.0000W
40-10.350000N / 085-56.683333W
40.1725000 / -85.9447222
(estimated)
Elevation: 845 ft. / 258 m (estimated)
Variation: 03W (1990)
From city: 4 miles E of ARCADIA, IN
Time zone: UTC -4 (UTC -5 during Standard Time)
Zip code: 46034

Airport Operations

Airport use: Private use. Permission required prior to landing
Activation date: 11/1992
Control tower: no
ARTCC: CHICAGO CENTER
FSS: TERRE HAUTE FLIGHT SERVICE STATION
Attendance: UNATNDD
Wind indicator: yes
Segmented circle: no

Airport Communications

WX AWOS-3 at UMP (15 nm S): 119.375 (317-842-3911)
WX AWOS-3 at AID (16 nm E): 128.55 (765-378-1510)
WX AWOS-3PT at TYQ (16 nm SW): 120.725 (317-769-3154)
WX AWOS-3 at MQJ (20 nm S): 124.175 (317-335-3037)

Nearby radio navigation aids

VOR radial/distance  VOR name  Freq  Var
OKKr171/21.9KOKOMO VORTAC113.5005W
MZZr215/22.8MARION VOR/DME108.6003W
MIEr264/25.5MUNCIE VOR/DME114.4003W
VHPr041/29.0BRICKYARD VORTAC116.3001E
GUSr164/29.9GRISSOM VORTAC108.4502W
SHBr349/32.9SHELBYVILLE VOR/DME112.0001E

 
NDB name  Hdg/Dist  Freq  Var  ID
METROPOLITAN022/14.933803WUMP ..- -- .--.
NEW CASTLE303/33.738502WUWL ..- .-- .-..

Airport Services

Runway Information

Runway 9/27

Dimensions: 2400 x 70 ft. / 732 x 21 m
Surface: turf
RUNWAY 9  RUNWAY 27
Traffic pattern: leftleft
Displaced threshold: no560 ft.
Obstructions: none35 ft. bldg, 140 ft. from runway

Airport Ownership and Management from official FAA records

Ownership: Privately-owned
Owner: ROBERT E. CRUZAN II
26410 S.R. 213
ARCADIA, IN 46030
Phone 317-439-0800
Manager: ROBERT E. CRUZAN II
26410 S.R. 213
ARCADIA, IN 46030
Phone 317-439-0800

Airport Operational Statistics

Aircraft based on the field: 4
Single engine airplanes: 1
Ultralights: 3
    

Instrument Procedures

There are no published instrument procedures at 9II4.

Some nearby airports with instrument procedures:

5I4 - Sheridan Airport (12 nm W)
KUMP - Indianapolis Metropolitan Airport (15 nm S)
KAID - Anderson Municipal Airport-Darlington Field (16 nm E)
KTYQ - Indianapolis Executive Airport (16 nm SW)
KMQJ - Indianapolis Regional Airport (20 nm S)
 
Loc | Ops | Rwys | IFR | FBO | Links
Com | Nav | Svcs | Stats | Notes

AirNav Hotels Sweepstakes
 
Area around 9II4 (Cruzan Field Airport)
 
Road maps at: MapQuest Bing Google
 
Aerial photo
No photo
 
Sectional chart

 
Airport distance calculator
Flying to Cruzan Field Airport? Find the distance to fly.

From to 9II4

Sunrise and sunset
Times for 27-Apr-2018
 Local
(UTC-4)
 Zulu
(UTC)
Morning civil twilight06:2110:21
Sunrise06:5010:50
Sunset20:3300:33
Evening civil twilight21:0201:02

Current date and time
Zulu (UTC)  27-Apr-2018 06:36:26
Local (UTC-4)  27-Apr-2018 02:36:26
 
METAR
KAID 
15nm E 
261748Z 34005KT 10SM CLR 15/03 A2991
KTYQ 
16nm SW 
270615Z AUTO 00000KT 10SM CLR 07/03 A2983 RMK AO2 T00650025
KMQJ 
20nm S 
270615Z AUTO 00000KT 10SM CLR 06/06 A2983 RMK AO1
KOKK 
22nm N 
270556Z AUTO 14003KT 10SM CLR 07/03 A2983 RMK AO2 SLP105 T00670028 10167 20067 58013
KMZZ 
23nm NE 
270615Z AUTO 00000KT 10SM CLR 07/03 A2982 RMK AO2 T00710026
KMIE 
25nm E 
270553Z AUTO 27004KT 10SM CLR 08/03 A2983 RMK AO2 SLP096 T00830028 10172 20083 58009
KEYE 
26nm SW 
270553Z AUTO 00000KT 10SM CLR 10/05 A2982 RMK AO2 SLP098 T01000050 10167 20100 58010
KFKR 
29nm W 
270615Z AUTO 17003KT 10SM CLR 07/02 A2984 RMK AO2 T00740020
KGUS 
29nm N 
270556Z AUTO 14003KT 10SM CLR 08/03 A2981 RMK AO2 SLP098 T00820026 10166 20075 57015
TAF
KGUS 
29nm N 
270300Z 2703/2809 VRB06KT 9999 FEW050 QNH2981INS BECMG 2717/2718 26010G15KT 9999 SCT050 QNH2977INS BECMG 2723/2724 27009KT 9999 BKN050 QNH2976INS BECMG 2802/2803 29009KT 9000 -SHRA SCT008 BKN035 OVC050 QNH2980INS BECMG 2804/2805 33012G18KT 8000 -SHRA BKN008 OVC015 QNH2984INS TX17/2717Z TN07/2708Z
KIND 
31nm SW 
270520Z 2706/2812 00000KT P6SM FEW250 FM271500 27006KT P6SM FEW250
NOTAMs
Click for the latest NOTAMs
NOTAMs are issued by the DoD/FAA and will open in a separate window not controlled by AirNav.

 

 
 

Would you like to see your business listed on this page?

 If your business provides an interesting product or service to pilots, flight crews, aircraft, or users of the Cruzan Field Airport, you should consider listing it here.  To start the listing process, click on the button below
 
Add a business
 

Other Pages about Cruzan Field Airport

Update a link
 
Copyright © AirNav, LLC. All rights reserved. Privacy Policy  Contact